This is the latest recevied weather packets stored in our database for station/object HARMALA. If no packets are shown the sender has not sent any weather packets the latest 10 day(s).
| Time | Temp. | Humidity | Pressure | Rain* | Wind** | Luminosity | Snow |
|---|---|---|---|---|---|---|---|
| 1777588017 | 7.78° C | 77% | 1021.4 hPa | 0 mm | - | - | - |
| 1777586817 | 8.33° C | 75% | 1021.4 hPa | 0 mm | - | - | - |
| 1777585617 | 9.44° C | 70% | 1021.3 hPa | 0 mm | - | - | - |
| 1777584418 | 10.56° C | 67% | 1021.3 hPa | 0 mm | - | - | - |
| 1777583217 | 11.11° C | 65% | 1021.2 hPa | 0 mm | - | - | - |
| 1777582017 | 11.67° C | 63% | 1021.1 hPa | 0 mm | - | - | - |
| 1777580817 | 11.67° C | 63% | 1021 hPa | 0 mm | - | - | - |
| 1777579616 | 11.67° C | 62% | 1020.8 hPa | 0 mm | - | - | - |
| 1777578417 | 12.78° C | 60% | 1020.7 hPa | 0 mm | - | - | - |
| 1777577217 | 12.78° C | 59% | 1020.6 hPa | 0 mm | - | - | - |
| 1777576017 | 13.33° C | 58% | 1020.5 hPa | 0 mm | - | - | - |
| 1777574817 | 13.33° C | 57% | 1020.4 hPa | 0 mm | - | - | - |
| 1777573617 | 13.89° C | 56% | 1020.2 hPa | 0 mm | - | - | - |
| 1777572416 | 14.44° C | 55% | 1020.1 hPa | 0 mm | - | - | - |
| 1777571217 | 14.44° C | 53% | 1019.8 hPa | 0 mm | - | - | - |
| 1777570016 | 15° C | 51% | 1019.5 hPa | 0 mm | - | - | - |
| 1777568816 | 15° C | 50% | 1019.5 hPa | 0 mm | - | - | - |
| 1777567616 | 15.56° C | 50% | 1019.5 hPa | 0 mm | - | - | - |
| 1777566417 | 15.56° C | 49% | 1019.4 hPa | 0 mm | - | - | - |
| 1777565216 | 15.56° C | 48% | 1019.3 hPa | 0 mm | - | - | - |
| 1777564016 | 15.56° C | 48% | 1019.2 hPa | 0 mm | - | - | - |
| 1777562816 | 15.56° C | 47% | 1019.3 hPa | 0 mm | - | - | - |
| 1777561616 | 16.67° C | 45% | 1019.3 hPa | 0 mm | - | - | - |
| 1777560416 | 16.67° C | 45% | 1019.3 hPa | 0 mm | - | - | - |
| 1777559215 | 16.67° C | 45% | 1019.3 hPa | 0 mm | - | - | - |
* Rain latest hour (hover to see other rain measurements)
** Current wind speed in m/s (hover to see current wind gust speed)